No particular awareness of the weather is required.    There are no Weather-warnings


Meteo18 Weather Cam more information Meteo18 Weather Cam


Thunder radar more information blitzortung!


Rain radar more information rain snow radar


Visit our other weather sites:

Template documentation
and downloads

And another site



Weather Underground History page Text

Daily Summary for February 25, 2018 Units:  Metric    English   Both
« Previous Day
Next Day »
Daily Weekly Monthly Yearly Custom
  High: Low: Average:
Temperature: -17.8 °C -19.3 °C -18.1 °C
Dew Point: -17.8 °C -24.4 °C -22.3 °C
Humidity: Humidity % 42 % 57 %
Wind Speed: 0 km/h 0 km/h 25.6 km/h
Wind Gust: 0 km/h - -
Wind:- - NE
Pressure: 0 hPa 34347.6 hPa -
Precipitation: 0 mm    
Historical Graphs
 
 
Tabular Data for February 25, 2018
Time Temperature Dew Point Pressure Wind Wind Speed Wind Gust Humidity Rainfall Rate (Hourly)
-17.8 °C -17.8 °C 0 hPa Calm     Humidity % 0 mm
00:01 -17.7 °C -21 °C 34347.6 hPa NNE 17.9 km/h 28.5 km/h 64 % 0 mm
00:07 -17.7 °C -21 °C 34347.6 hPa NE 17.9 km/h 28.5 km/h 64 % 0 mm
00:13 -17.7 °C -21.1 °C 34347.6 hPa NE 28.5 km/h 28.5 km/h 64 % 0 mm
00:19 -17.7 °C -21.1 °C 34361.1 hPa NE 20.9 km/h 31.1 km/h 64 % 0 mm
00:25 -17.8 °C -21.1 °C 34347.6 hPa NE 17.9 km/h 28.5 km/h 64 % 0 mm
00:31 -17.8 °C -21.1 °C 34347.6 hPa NNE 15.6 km/h 20.8 km/h 65 % 0 mm
00:37 -17.9 °C -21.1 °C 34347.6 hPa NNE 26.2 km/h 26.2 km/h 65 % 0 mm
00:43 -17.9 °C -21.1 °C 34361.1 hPa NE 10.3 km/h 20.8 km/h 65 % 0 mm
00:49 -17.9 °C -21.2 °C 34361.1 hPa NNE 12.7 km/h 25.9 km/h 65 % 0 mm
00:55 -17.9 °C -21.2 °C 34347.6 hPa NE 17.9 km/h 25.9 km/h 65 % 0 mm
01:01 -17.9 °C -21.2 °C 34347.6 hPa NE 23 km/h 23.3 km/h 65 % 0 mm
01:07 -17.9 °C -21.1 °C 34361.1 hPa NNE 23 km/h 25.9 km/h 66 % 0 mm
01:13 -17.9 °C -21.2 °C 34361.1 hPa NE 17.9 km/h 23.3 km/h 65 % 0 mm
01:19 -17.9 °C -21.1 °C 34361.1 hPa NE 20.9 km/h 28.5 km/h 66 % 0 mm
01:25 -17.9 °C -21.1 °C 34361.1 hPa ENE 17.9 km/h 20.8 km/h 66 % 0 mm
01:31 -17.9 °C -21.1 °C 34361.1 hPa NE 17.9 km/h 23.3 km/h 66 % 0 mm
01:37 -18 °C -21.1 °C 34361.1 hPa NNE 17.9 km/h 28.5 km/h 66 % 0 mm
01:43 -17.9 °C -21.1 °C 34361.1 hPa NE 10.3 km/h 28.5 km/h 66 % 0 mm
01:47 -18 °C -21 °C 34361.1 hPa NE 15.6 km/h 18.2 km/h 67 % 0 mm
01:53 -18 °C -21 °C 34361.1 hPa NNE 7.6 km/h 18.2 km/h 67 % 0 mm
01:59 -18 °C -21 °C 34361.1 hPa NNE 7.6 km/h 20.8 km/h 67 % 0 mm
02:05 -18 °C -21.1 °C 34361.1 hPa NNE 23 km/h 28.5 km/h 66 % 0 mm
02:11 -18 °C -21.2 °C 34361.1 hPa NNE 23 km/h 36.2 km/h 65 % 0 mm
02:17 -18 °C -21.1 °C 34361.1 hPa ENE 20.9 km/h 31.1 km/h 66 % 0 mm
02:23 -17.9 °C -21.2 °C 34371.3 hPa NNE 23 km/h 31.1 km/h 65 % 0 mm
02:29 -17.9 °C -21.2 °C 34371.3 hPa NE 26.2 km/h 36.2 km/h 65 % 0 mm
02:35 -18 °C -21.2 °C 34371.3 hPa NE 15.6 km/h 23.3 km/h 65 % 0 mm
02:41 -18 °C -21.2 °C 34371.3 hPa NE 10.3 km/h 36.2 km/h 65 % 0 mm
02:47 -18 °C -21.1 °C 34371.3 hPa NNE 12.7 km/h 20.8 km/h 66 % 0 mm
02:53 -18.1 °C -21.2 °C 34371.3 hPa NE 20.9 km/h 23.3 km/h 66 % 0 mm
02:59 -18.1 °C -21.2 °C 34371.3 hPa NNE 12.7 km/h 31.1 km/h 66 % 0 mm
03:05 -18.2 °C -21.2 °C 34371.3 hPa ENE 7.6 km/h 18.2 km/h 67 % 0 mm
03:11 -18.2 °C -21.2 °C 34371.3 hPa North 15.6 km/h 31.1 km/h 67 % 0 mm
03:17 -18.2 °C -21.2 °C 34371.3 hPa NE 12.7 km/h 20.8 km/h 67 % 0 mm
03:23 -18.3 °C -21.2 °C 34371.3 hPa NE 15.6 km/h 31.1 km/h 68 % 0 mm
03:29 -18.3 °C -21.1 °C 34361.1 hPa NE 20.9 km/h 31.1 km/h 69 % 0 mm
03:35 -18.3 °C -21.1 °C 34361.1 hPa NNE 20.9 km/h 36.2 km/h 69 % 0 mm
03:41 -18.4 °C -21.2 °C 34361.1 hPa NNE 26.2 km/h 31.1 km/h 69 % 0 mm
03:47 -18.4 °C -21.2 °C 34361.1 hPa NE 17.9 km/h 25.9 km/h 69 % 0 mm
03:53 -18.4 °C -21.2 °C 34361.1 hPa NNE 20.9 km/h 41.4 km/h 69 % 0 mm
03:59 -18.4 °C -21.2 °C 34361.1 hPa NE 12.7 km/h 33.6 km/h 69 % 0 mm
04:05 -18.4 °C -21.1 °C 34361.1 hPa NE 23 km/h 28.5 km/h 70 % 0 mm
04:11 -18.4 °C -21.2 °C 34371.3 hPa ENE 31.4 km/h 31.4 km/h 69 % 0 mm
04:17 -18.4 °C -21.1 °C 34371.3 hPa NE 26.2 km/h 28.5 km/h 70 % 0 mm
04:23 -18.5 °C -21.2 °C 34371.3 hPa NE 31.4 km/h 33.6 km/h 70 % 0 mm
04:29 -18.5 °C -21.2 °C 34371.3 hPa NNE 26.2 km/h 36.2 km/h 70 % 0 mm
04:35 -18.5 °C -21.2 °C 34371.3 hPa NNE 15.6 km/h 31.1 km/h 70 % 0 mm
04:41 -18.5 °C -21.2 °C 34371.3 hPa NNE 12.7 km/h 33.6 km/h 70 % 0 mm
04:47 -18.5 °C -21.2 °C 34371.3 hPa NE 41.7 km/h 41.7 km/h 70 % 0 mm
04:53 -18.6 °C -21.2 °C 34371.3 hPa ENE 26.2 km/h 36.2 km/h 70 % 0 mm
05:00 -18.6 °C -21.1 °C 34371.3 hPa NE 36.5 km/h 38.8 km/h 71 % 0 mm
05:06 -18.6 °C -21.3 °C 34371.3 hPa NE 20.9 km/h 44.1 km/h 70 % 0 mm
05:12 -18.7 °C -21.2 °C 34371.3 hPa North 28.5 km/h 44.1 km/h 71 % 0 mm
05:18 -18.7 °C -21.2 °C 34371.3 hPa NNE 10.3 km/h 33.6 km/h 71 % 0 mm
05:24 -18.7 °C -21.2 °C 34371.3 hPa North 41.7 km/h 41.7 km/h 71 % 0 mm
05:30 -18.7 °C -21.3 °C 34371.3 hPa ENE 10.3 km/h 28.5 km/h 71 % 0 mm
05:36 -18.7 °C -21.3 °C 34371.3 hPa NE 28.5 km/h 33.6 km/h 71 % 0 mm
05:42 -18.8 °C -21.2 °C 34371.3 hPa NNE 10.3 km/h 38.8 km/h 72 % 0 mm
05:48 -18.8 °C -21.3 °C 34371.3 hPa ENE 20.9 km/h 38.8 km/h 71 % 0 mm
05:54 -18.8 °C -21.3 °C 34384.8 hPa NE 33.6 km/h 33.6 km/h 71 % 0 mm
06:00 -18.8 °C -21.3 °C 34384.8 hPa NNE 17.9 km/h 41.4 km/h 71 % 0 mm
06:06 -18.8 °C -21.3 °C 34384.8 hPa NNE 31.4 km/h 41.4 km/h 71 % 0 mm
06:12 -18.8 °C -21.4 °C 34384.8 hPa ENE 38.8 km/h 46.7 km/h 71 % 0 mm
06:18 -18.8 °C -21.4 °C 34384.8 hPa ENE 41.7 km/h 49.2 km/h 70 % 0 mm
06:24 -18.8 °C -21.4 °C 34384.8 hPa NE 28.5 km/h 49.2 km/h 70 % 0 mm
06:30 -18.8 °C -21.4 °C 34395 hPa ENE 36.5 km/h 46.7 km/h 70 % 0 mm
06:36 -18.9 °C -21.6 °C 34395 hPa ENE 20.9 km/h 49.2 km/h 70 % 0 mm
06:42 -18.9 °C -21.6 °C 34395 hPa NNE 33.6 km/h 46.7 km/h 70 % 0 mm
06:48 -19 °C -21.6 °C 34395 hPa NNE 28.5 km/h 33.6 km/h 70 % 0 mm
06:54 -19 °C -21.6 °C 34395 hPa NNE 31.4 km/h 49.2 km/h 70 % 0 mm
07:00 -19 °C -21.6 °C 34395 hPa NE 10.3 km/h 44.1 km/h 70 % 0 mm
07:06 -19.1 °C -21.7 °C 34405.1 hPa NE 17.9 km/h 49.2 km/h 70 % 0 mm
07:12 -19.1 °C -21.7 °C 34405.1 hPa NE 26.2 km/h 33.6 km/h 70 % 0 mm
07:18 -19.1 °C -21.7 °C 34395 hPa NNE 15.6 km/h 41.4 km/h 70 % 0 mm
07:24 -19.1 °C -21.8 °C 34395 hPa ENE 36.5 km/h 46.7 km/h 69 % 0 mm
07:30 -19.1 °C -21.7 °C 34405.1 hPa NE 23 km/h 38.8 km/h 70 % 0 mm
07:36 -19.2 °C -21.9 °C 34405.1 hPa NNE 38.8 km/h 44.1 km/h 69 % 0 mm
07:42 -19.2 °C -21.9 °C 34405.1 hPa NE 17.9 km/h 46.7 km/h 69 % 0 mm
07:48 -19.2 °C -21.8 °C 34405.1 hPa NE 33.6 km/h 41.4 km/h 70 % 0 mm
07:54 -19.2 °C -21.9 °C 34405.1 hPa NNE 41.7 km/h 54.4 km/h 69 % 0 mm
08:00 -19.2 °C -21.9 °C 34405.1 hPa NE 26.2 km/h 51.8 km/h 69 % 0 mm
08:06 -19.2 °C -21.9 °C 34405.1 hPa NE 38.8 km/h 44.1 km/h 69 % 0 mm
08:12 -19.3 °C -22 °C 34405.1 hPa NE 26.2 km/h 38.8 km/h 69 % 0 mm
08:18 -19.3 °C -21.9 °C 34418.7 hPa NNE 41.7 km/h 46.7 km/h 70 % 0 mm
08:24 -19.3 °C -21.9 °C 34418.7 hPa NE 38.8 km/h 44.1 km/h 70 % 0 mm
08:30 -19.2 °C -21.9 °C 34418.7 hPa NNE 41.7 km/h 51.8 km/h 69 % 0 mm
08:36 -19.2 °C -22.1 °C 34418.7 hPa NNE 38.8 km/h 46.7 km/h 68 % 0 mm
08:42 -19.2 °C -22 °C 34418.7 hPa NE 20.9 km/h 46.7 km/h 68 % 0 mm
08:48 -19.1 °C -21.9 °C 34418.7 hPa NNE 51.5 km/h 57 km/h 68 % 0 mm
08:54 -19.1 °C -21.9 °C 34428.8 hPa NE 26.2 km/h 38.8 km/h 68 % 0 mm
09:00 -19.1 °C -21.9 °C 34428.8 hPa NE 38.8 km/h 54.4 km/h 68 % 0 mm
09:06 -19.1 °C -22 °C 34428.8 hPa NE 23 km/h 41.4 km/h 67 % 0 mm
09:12 -19 °C -21.9 °C 34428.8 hPa ENE 12.7 km/h 57 km/h 67 % 0 mm
09:18 -19 °C -22.1 °C 34428.8 hPa NNE 41.7 km/h 44.1 km/h 66 % 0 mm
09:24 -18.9 °C -22 °C 34442.4 hPa NNE 17.9 km/h 57 km/h 66 % 0 mm
09:30 -18.9 °C -22.1 °C 34428.8 hPa NE 23 km/h 54.4 km/h 65 % 0 mm
09:36 -18.9 °C -21.9 °C 34442.4 hPa ENE 23 km/h 44.1 km/h 66 % 0 mm
09:42 -18.8 °C -21.9 °C 34442.4 hPa NE 26.2 km/h 38.8 km/h 66 % 0 mm
09:48 -18.8 °C -21.9 °C 34442.4 hPa NE 38.8 km/h 46.7 km/h 65 % 0 mm
09:54 -18.8 °C -22 °C 34442.4 hPa ENE 23 km/h 44.1 km/h 65 % 0 mm
10:00 -18.8 °C -22.1 °C 34442.4 hPa NE 33.6 km/h 46.7 km/h 64 % 0 mm
10:06 -18.7 °C -21.8 °C 34442.4 hPa NE 23 km/h 31.1 km/h 66 % 0 mm
10:12 -18.6 °C -21.8 °C 34442.4 hPa NE 15.6 km/h 38.8 km/h 65 % 0 mm
10:18 -18.6 °C -21.9 °C 34442.4 hPa NE 33.6 km/h 51.8 km/h 63 % 0 mm
10:24 -18.6 °C -21.8 °C 34442.4 hPa NE 15.6 km/h 41.4 km/h 64 % 0 mm
10:30 -18.5 °C -21.9 °C 34442.4 hPa ENE 12.7 km/h 36.2 km/h 63 % 0 mm
10:36 -18.5 °C -21.9 °C 34442.4 hPa NE 46.3 km/h 49.2 km/h 63 % 0 mm
10:42 -18.4 °C -21.7 °C 34442.4 hPa NE 41.7 km/h 49.2 km/h 64 % 0 mm
10:48 -18.4 °C -21.8 °C 34442.4 hPa ENE 38.8 km/h 46.7 km/h 63 % 0 mm
10:54 -18.4 °C -21.8 °C 34442.4 hPa NNE 44.1 km/h 51.8 km/h 63 % 0 mm
11:00 -18.4 °C -21.8 °C 34442.4 hPa ENE 20.9 km/h 46.7 km/h 63 % 0 mm
11:06 -18.4 °C -21.8 °C 34442.4 hPa NE 49.2 km/h 49.2 km/h 63 % 0 mm
11:12 -18.3 °C -21.6 °C 34452.6 hPa NNE 26.2 km/h 31.1 km/h 64 % 0 mm
11:18 -18.2 °C -21.8 °C 34452.6 hPa NE 36.5 km/h 49.2 km/h 62 % 0 mm
11:24 -18.2 °C -21.8 °C 34452.6 hPa NNE 31.4 km/h 49.2 km/h 62 % 0 mm
11:30 -18.2 °C -21.6 °C 34452.6 hPa NE 38.8 km/h 51.8 km/h 63 % 0 mm
11:36 -18.2 °C -21.8 °C 34452.6 hPa NNE 38.8 km/h 62.1 km/h 61 % 0 mm
11:42 -18.2 °C -21.9 °C 34452.6 hPa NE 31.4 km/h 59.5 km/h 60 % 0 mm
11:48 -18.2 °C -21.8 °C 34452.6 hPa NE 51.5 km/h 57 km/h 61 % 0 mm
11:54 -18.2 °C -21.9 °C 34442.4 hPa NE 36.5 km/h 64.7 km/h 60 % 0 mm
12:00 -18 °C -21.8 °C 34452.6 hPa NE 49.2 km/h 59.5 km/h 60 % 0 mm
12:06 -17.9 °C -21.6 °C 34452.6 hPa ENE 51.5 km/h 51.8 km/h 61 % 0 mm
12:12 -17.8 °C -21.6 °C 34462.7 hPa NE 33.6 km/h 46.7 km/h 60 % 0 mm
12:18 -17.8 °C -21.8 °C 34462.7 hPa NE 17.9 km/h 57 km/h 59 % 0 mm
12:24 -17.8 °C -21.9 °C 34462.7 hPa ENE 36.5 km/h 46.7 km/h 58 % 0 mm
12:30 -17.7 °C -21.8 °C 34462.7 hPa ENE 15.6 km/h 57 km/h 58 % 0 mm
12:36 -17.7 °C -21.8 °C 34452.6 hPa NE 12.7 km/h 46.7 km/h 58 % 0 mm
12:42 -17.7 °C -21.9 °C 34452.6 hPa NNE 44.1 km/h 59.5 km/h 57 % 0 mm
12:48 -17.7 °C -21.8 °C 34452.6 hPa NE 46.3 km/h 46.7 km/h 58 % 0 mm
12:54 -17.6 °C -21.6 °C 34452.6 hPa NNE 31.4 km/h 46.7 km/h 59 % 0 mm
13:00 -17.6 °C -21.7 °C 34452.6 hPa NE 49.2 km/h 59.5 km/h 57 % 0 mm
13:06 -17.6 °C -21.7 °C 34452.6 hPa NE 12.7 km/h 36.2 km/h 57 % 0 mm
13:12 -17.5 °C -21.9 °C 34452.6 hPa NNE 41.7 km/h 59.5 km/h 55 % 0 mm
13:18 -17.4 °C -21.8 °C 34452.6 hPa NE 17.9 km/h 54.4 km/h 56 % 0 mm
13:24 -17.3 °C -21.9 °C 34452.6 hPa North 20.9 km/h 62.1 km/h 54 % 0 mm
13:30 -17.4 °C -21.7 °C 34452.6 hPa NE 31.4 km/h 57 km/h 56 % 0 mm
13:36 -17.3 °C -22.1 °C 34452.6 hPa NE 41.7 km/h 62.1 km/h 53 % 0 mm
13:42 -17.4 °C -21.9 °C 34452.6 hPa NNE 41.7 km/h 64.7 km/h 54 % 0 mm
13:48 -17.3 °C -21.8 °C 34452.6 hPa ENE 20.9 km/h 49.2 km/h 55 % 0 mm
13:54 -17.2 °C -21.5 °C 34452.6 hPa NE 28.5 km/h 38.8 km/h 56 % 0 mm
14:00 -17.2 °C -21.9 °C 34452.6 hPa North 33.6 km/h 51.8 km/h 53 % 0 mm
14:06 -17.1 °C -21.8 °C 34452.6 hPa NNE 38.8 km/h 57 km/h 53 % 0 mm
14:12 -17.2 °C -22.1 °C 34452.6 hPa NE 49.2 km/h 51.8 km/h 52 % 0 mm
14:18 -17 °C -21.9 °C 34452.6 hPa NNE 33.6 km/h 46.7 km/h 52 % 0 mm
14:24 -16.8 °C -22 °C 34452.6 hPa NNE 44.1 km/h 54.4 km/h 50 % 0 mm
14:30 -16.8 °C -21.9 °C 34452.6 hPa North 17.9 km/h 38.8 km/h 51 % 0 mm
14:36 -16.8 °C -22.2 °C 34452.6 hPa NE 44.1 km/h 54.4 km/h 49 % 0 mm
14:42 -16.8 °C -22.1 °C 34452.6 hPa NNE 31.4 km/h 49.2 km/h 49 % 0 mm
14:48 -16.8 °C -22.4 °C 34452.6 hPa NNE 49.2 km/h 62.1 km/h 47 % 0 mm
14:54 -16.8 °C -22.4 °C 34452.6 hPa NE 33.6 km/h 64.7 km/h 47 % 0 mm
15:00 -16.8 °C -22.4 °C 34452.6 hPa NE 28.5 km/h 41.4 km/h 47 % 0 mm
15:06 -16.7 °C -22.2 °C 34452.6 hPa NE 38.8 km/h 57 km/h 48 % 0 mm
15:12 -16.6 °C -22.2 °C 34452.6 hPa NNE 15.6 km/h 46.7 km/h 47 % 0 mm
15:18 -16.6 °C -22.3 °C 34452.6 hPa NE 23 km/h 62.1 km/h 46 % 0 mm
15:24 -16.4 °C -22.1 °C 34452.6 hPa NNE 26.2 km/h 36.2 km/h 47 % 0 mm
15:30 -16.5 °C -22.6 °C 34452.6 hPa ENE 36.5 km/h 49.2 km/h 44 % 0 mm
15:37 -16.4 °C -22.2 °C 34452.6 hPa North 12.7 km/h 38.8 km/h 46 % 0 mm
15:43 -16.4 °C -22.4 °C 34452.6 hPa East 15.6 km/h 33.6 km/h 45 % 0 mm
15:49 -16.3 °C -22.3 °C 34452.6 hPa NE 15.6 km/h 49.2 km/h 45 % 0 mm
15:55 -16.4 °C -22.3 °C 34452.6 hPa NNE 33.6 km/h 44.1 km/h 45 % 0 mm
16:01 -16.4 °C -22.3 °C 34452.6 hPa North 36.5 km/h 49.2 km/h 45 % 0 mm
16:07 -16.3 °C -22.2 °C 34452.6 hPa NNE 28.5 km/h 49.2 km/h 46 % 0 mm
16:13 -16.4 °C -22.5 °C 34452.6 hPa NE 36.5 km/h 46.7 km/h 44 % 0 mm
16:19 -16.3 °C -22.3 °C 34462.7 hPa NE 7.6 km/h 41.4 km/h 45 % 0 mm
16:25 -16.4 °C -22.7 °C 34462.7 hPa NE 44.1 km/h 67.3 km/h 43 % 0 mm
16:31 -16.4 °C -22.7 °C 34462.7 hPa ENE 17.9 km/h 44.1 km/h 43 % 0 mm
16:37 -16.4 °C -22.7 °C 34462.7 hPa ENE 38.8 km/h 51.8 km/h 43 % 0 mm
16:43 -16.4 °C -22.6 °C 34462.7 hPa NNE 28.5 km/h 44.1 km/h 44 % 0 mm
16:49 -16.5 °C -22.8 °C 34462.7 hPa NNE 38.8 km/h 46.7 km/h 43 % 0 mm
16:55 -16.5 °C -22.4 °C 34462.7 hPa NE 36.5 km/h 38.8 km/h 45 % 0 mm
17:01 -16.5 °C -22.6 °C 34462.7 hPa NNE 20.9 km/h 44.1 km/h 44 % 0 mm
17:07 -16.5 °C -22.4 °C 34462.7 hPa NE 28.5 km/h 36.2 km/h 45 % 0 mm
17:13 -16.6 °C -22.5 °C 34476.3 hPa NNE 15.6 km/h 33.6 km/h 45 % 0 mm
17:19 -16.6 °C -22.9 °C 34476.3 hPa NE 28.5 km/h 49.2 km/h 43 % 0 mm
17:25 -16.7 °C -23.2 °C 34476.3 hPa NNE 31.4 km/h 54.4 km/h 42 % 0 mm
17:31 -16.7 °C -22.8 °C 34476.3 hPa NNE 28.5 km/h 33.6 km/h 44 % 0 mm
17:37 -16.7 °C -22.8 °C 34476.3 hPa NNE 12.7 km/h 33.6 km/h 44 % 0 mm
17:43 -16.7 °C -23 °C 34476.3 hPa NE 23 km/h 49.2 km/h 43 % 0 mm
17:49 -16.8 °C -23.2 °C 34476.3 hPa NNE 44.1 km/h 46.7 km/h 42 % 0 mm
17:55 -16.8 °C -23.1 °C 34486.4 hPa ENE 17.9 km/h 36.2 km/h 43 % 0 mm
18:01 -16.9 °C -23.1 °C 34486.4 hPa NE 26.2 km/h 31.1 km/h 43 % 0 mm
18:07 -16.9 °C -23.1 °C 34486.4 hPa NNE 31.4 km/h 36.2 km/h 43 % 0 mm
18:13 -17 °C -23.2 °C 34486.4 hPa NE 31.4 km/h 38.8 km/h 43 % 0 mm
18:19 -17.1 °C -23.4 °C 34486.4 hPa North 26.2 km/h 36.2 km/h 42 % 0 mm
18:25 -17.2 °C -23.2 °C 34486.4 hPa NE 28.5 km/h 51.8 km/h 44 % 0 mm
18:31 -17.3 °C -23.2 °C 34486.4 hPa NNE 20.9 km/h 36.2 km/h 45 % 0 mm
18:37 -17.3 °C -23.5 °C 34486.4 hPa NNE 28.5 km/h 54.4 km/h 43 % 0 mm
18:43 -17.3 °C -23.4 °C 34496.6 hPa NE 20.9 km/h 33.6 km/h 44 % 0 mm
18:49 -17.4 °C -23.6 °C 34496.6 hPa NNE 20.9 km/h 33.6 km/h 43 % 0 mm
18:55 -17.4 °C -23.6 °C 34496.6 hPa NE 26.2 km/h 36.2 km/h 43 % 0 mm
19:01 -17.6 °C -23.4 °C 34496.6 hPa NE 15.6 km/h 23.3 km/h 45 % 0 mm
19:07 -17.6 °C -23.4 °C 34496.6 hPa NE 28.5 km/h 28.5 km/h 45 % 0 mm
19:13 -17.6 °C -23.6 °C 34496.6 hPa Calm   33.6 km/h 44 % 0 mm
19:19 -17.7 °C -23.4 °C 34510.1 hPa NNE 10.3 km/h 25.9 km/h 46 % 0 mm
19:25 -17.7 °C -23.8 °C 34510.1 hPa NE 49.2 km/h 49.2 km/h 43 % 0 mm
19:31 -17.7 °C -23.8 °C 34510.1 hPa NE 17.9 km/h 46.7 km/h 43 % 0 mm
19:37 -17.7 °C -23.7 °C 34510.1 hPa NNE 20.9 km/h 36.2 km/h 44 % 0 mm
19:43 -17.8 °C -23.6 °C 34510.1 hPa NE 20.9 km/h 41.4 km/h 45 % 0 mm
19:49 -17.8 °C -23.7 °C 34510.1 hPa NE 31.4 km/h 41.4 km/h 45 % 0 mm
19:55 -17.9 °C -23.9 °C 34510.1 hPa NE 20.9 km/h 54.4 km/h 44 % 0 mm
20:01 -17.9 °C -23.9 °C 34510.1 hPa NNE 31.4 km/h 36.2 km/h 44 % 0 mm
20:07 -17.9 °C -23.8 °C 34510.1 hPa NNE 20.9 km/h 36.2 km/h 45 % 0 mm
20:13 -18 °C -24 °C 34510.1 hPa North 20.9 km/h 46.7 km/h 44 % 0 mm
20:19 -18.1 °C -23.9 °C 34510.1 hPa NNE 12.7 km/h 31.1 km/h 45 % 0 mm
20:25 -18.1 °C -24.1 °C 34510.1 hPa NE 28.5 km/h 33.6 km/h 44 % 0 mm
20:31 -18.1 °C -24.1 °C 34510.1 hPa NNE 15.6 km/h 41.4 km/h 44 % 0 mm
20:37 -18.2 °C -24.1 °C 34510.1 hPa ENE 23 km/h 41.4 km/h 44 % 0 mm
20:43 -18.2 °C -23.9 °C 34520.3 hPa NE 20.9 km/h 36.2 km/h 46 % 0 mm
20:49 -18.2 °C -24.1 °C 34510.1 hPa NNE 23 km/h 33.6 km/h 45 % 0 mm
20:55 -18.3 °C -24.2 °C 34510.1 hPa NNE 15.6 km/h 36.2 km/h 44 % 0 mm
21:01 -18.3 °C -24.4 °C 34520.3 hPa NE 31.4 km/h 38.8 km/h 43 % 0 mm
21:07 -18.3 °C -24.2 °C 34510.1 hPa NW 7.6 km/h 33.6 km/h 44 % 0 mm
21:13 -18.3 °C -24.3 °C 34520.3 hPa NNE 10.3 km/h 18.2 km/h 44 % 0 mm
21:19 -18.4 °C -24.3 °C 34520.3 hPa NNE 17.9 km/h 33.6 km/h 44 % 0 mm
21:25 -18.4 °C -24.2 °C 34520.3 hPa NNE 20.9 km/h 36.2 km/h 45 % 0 mm
21:31 -18.4 °C -24.1 °C 34520.3 hPa North 15.6 km/h 38.8 km/h 46 % 0 mm
21:37 -18.5 °C -24.3 °C 34520.3 hPa NE 17.9 km/h 31.1 km/h 45 % 0 mm
21:43 -18.5 °C -24.1 °C 34520.3 hPa NNE 12.7 km/h 33.6 km/h 46 % 0 mm
21:49 -18.6 °C -24.1 °C 34520.3 hPa North 12.7 km/h 33.6 km/h 47 % 0 mm
21:55 -18.6 °C -24.1 °C 34520.3 hPa North 7.6 km/h 36.2 km/h 47 % 0 mm
22:01 -18.7 °C -24.1 °C 34520.3 hPa NNE 7.6 km/h 44.1 km/h 47 % 0 mm
22:07 -18.7 °C -24.1 °C 34520.3 hPa NE 5.1 km/h 46.7 km/h 47 % 0 mm
22:13 -18.7 °C -24.1 °C 34520.3 hPa NNE 26.2 km/h 26.2 km/h 48 % 0 mm
22:19 -18.7 °C -24.2 °C 34520.3 hPa North 15.6 km/h 33.6 km/h 47 % 0 mm
22:25 -18.7 °C -24.2 °C 34520.3 hPa North 26.2 km/h 28.5 km/h 47 % 0 mm
22:31 -18.7 °C -24.2 °C 34520.3 hPa NE 26.2 km/h 31.1 km/h 47 % 0 mm
22:37 -18.7 °C -24.2 °C 34520.3 hPa NE 20.9 km/h 36.2 km/h 47 % 0 mm
22:43 -18.8 °C -24.1 °C 34520.3 hPa NE 20.9 km/h 31.1 km/h 48 % 0 mm
22:49 -18.8 °C -24.1 °C 34520.3 hPa NNW 12.7 km/h 33.6 km/h 48 % 0 mm
22:55 -18.8 °C -24.2 °C 34520.3 hPa NNE 10.3 km/h 44.1 km/h 48 % 0 mm
23:01 -18.9 °C -24.1 °C 34533.8 hPa NE 26.2 km/h 36.2 km/h 49 % 0 mm
23:07 -18.9 °C -24.1 °C 34520.3 hPa NNE 12.7 km/h 31.1 km/h 49 % 0 mm
23:13 -18.9 °C -23.9 °C 34533.8 hPa NE 28.5 km/h 28.5 km/h 50 % 0 mm
23:19 -18.9 °C -24.1 °C 34533.8 hPa NE 41.7 km/h 44.1 km/h 49 % 0 mm
23:25 -19 °C -24.2 °C 34520.3 hPa NNE 26.2 km/h 33.6 km/h 49 % 0 mm
23:31 -19.1 °C -24.1 °C 34520.3 hPa NNE 44.1 km/h 44.1 km/h 50 % 0 mm
23:37 -19.1 °C -24.1 °C 34520.3 hPa NNE 26.2 km/h 41.4 km/h 50 % 0 mm
23:43 -19.1 °C -24.1 °C 34520.3 hPa NNE 15.6 km/h 38.8 km/h 50 % 0 mm
23:49 -19.1 °C -24.3 °C 34533.8 hPa NNE 20.9 km/h 51.8 km/h 49 % 0 mm
23:55 -19.2 °C -24.3 °C 34520.3 hPa NE 31.4 km/h 36.2 km/h 49 % 0 mm
Meteo18
Compliments of Weather Underground - 4 mb

Script developed by  Jim McMurry - jmcmurry@mwt.net Adapted for the template by  Wim van der Kuil - Leuven-Template.eu

You find our weather info also at:

European Weather Network

Weather Underground

Equipment we use:

Weather-station
Davis Vue

Weather-program
Meteobridge

Weather-server
Raspberry PI 2 B+

Provider
1 and 1

Davis Vue

Meteobridge

Raspberry PI 2 B+

1 and 1